RADUGA-1M 2 [+]

Last updated on June 24, 2019, 3:40 a.m. UTC

1 36358U 10002A   19174.42580924 -.00000183  00000-0  00000+0 0  9996
2 36358   0.0342 230.9314 0002209 241.5752  37.0786  1.00270807 34437
UTC
Height (km)
Latitude
Longitude
Inclination
Orbital Period
UTC large
Height (km)
Speed (km/s)
/
Latitude / Longitude
Inclination (degrees)
Orbital Period (minutes)
Azimuth
Elevation
Range (km)
Doppler Factor
iOS Compass Heading
iOS Angle

Next 30 passes for location: Hong Kong

Rise time Rise Azimuth (degrees) Set time Set Azimuth (degrees) Duration Max altitude (degrees)

No matching passes for this satellites